[[{"header":{"parameterUnit":"m.s-1","parameterCategory":1,"la1":30.2991,"la2":30.254,"lo1":-89.0895,"lo2":-89.0444,"dy":0.0017,"dx":0.0017,"nx":28,"ny":28,"refTime":"2026-02-04T03:00:00:Z","depth":0,"parameterNumber":2,"parameterNumberName":"U-component_of_WINDS"},"data":[0,0,0,0,0,0,0,0,0,0,0,0,0,0,0,0,0,0,0,0,0,0,0,0,0,0,0,0,0,0,0,0,0,0,0,0,0,0,0,0,0,0,0,0,0,0,0,0,0,0,0,0,0,0,0,0,0,0,0.1116,0.1117,0,0.117,0.117,0.1171,0.1206,0.1206,0.1206,0.1206,0.1263,0.1264,0.1265,0,0,0,0,0,0,0,0,0,0,0,0,0,0.1047,0.1048,0.1116,0.1117,0.1117,0.117,0.117,0.1171,0.1206,0.1206,0.1206,0.1206,0.1262,0.1264,0.1265,0,0,0,0,0,0,0,0,0,0,0,0,0,0.1086,0.1048,0.1116,0.1141,0.1144,0.117,0.117,0.1171,0.1206,0.1206,0.1206,0.1207,0.1262,0.1264,0.1266,0.1271,0,0,0.1272,0.1273,0,0,0,0,0,0,0,0,0.1084,0.1089,0.1137,0.1139,0.1142,0.1181,0.1167,0.1205,0.1206,0.1182,0.1206,0.1207,0.1236,0.124,0.1249,0.1274,0.1277,0.1272,0.1273,0.1274,0.1274,0,0,0,0,0,0,0,0.1081,0.1087,0.1137,0.1137,0.1141,0.115,0.1156,0.1174,0.1206,0.1184,0.1187,0.1193,0.1237,0.1247,0.1251,0.1277,0.1272,0.1274,0.1275,0.1276,0.1313,0.1313,0,0,0,0,0,0,0.1074,0.1084,0.1136,0.1139,0.1113,0.1151,0.1158,0.1169,0.1206,0.1212,0.1192,0.1194,0.1244,0.1248,0.1253,0.1264,0.1274,0.1276,0.1277,0.1313,0.1313,0.1313,0,0,0,0,0,0,0.1072,0.1078,0.1134,0.1112,0.112,0.1152,0.1164,0.1169,0.1179,0.1212,0.1219,0.1196,0.1244,0.125,0.1267,0.1266,0.1277,0.1278,0.1314,0.1313,0.1313,0.1285,0,0,0,0,0,0,0.107,0.1077,0.1079,0.1112,0.1121,0.1146,0.1164,0.117,0.1182,0.1185,0.1218,0.1224,0.1245,0.1264,0.1269,0.1269,0.128,0.1314,0.1313,0.1313,0.1286,0.1284,0.1282,0,0,0,0,0,0.1068,0.1069,0.1079,0.1085,0.1124,0.1146,0.1151,0.1175,0.1182,0.1185,0.1207,0.1223,0.1266,0.1265,0.1271,0.1272,0.1314,0.1313,0.1313,0.1287,0.1284,0.1282,0,0,0,0,0,0,0.1035,0.1074,0.1085,0.1097,0.1118,0.1151,0.1155,0.1171,0.119,0.1192,0.1221,0.1229,0.1243,0.1259,0.1259,0.1281,0.1292,0.1293,0.127,0.1268,0.1266,0.1262,0.1282,0,0,0,0,0,0.1029,0.1043,0.1076,0.1084,0.1093,0.1122,0.1133,0.115,0.1173,0.1182,0.1205,0.1227,0.1246,0.1258,0.1277,0.1289,0.1298,0.1293,0.129,0.1289,0.1289,0.1299,0.1298,0.1312,0.1312,0.1312,0,0,0.1017,0.104,0.1047,0.1078,0.1096,0.1111,0.113,0.1144,0.1156,0.1184,0.1202,0.122,0.1247,0.1262,0.127,0.1276,0.1287,0.1288,0.1286,0.1288,0.1299,0.1297,0.1296,0.1311,0.1311,0.1311,0,0,0.1003,0.1021,0.103,0.1048,0.1076,0.1095,0.1098,0.1129,0.1142,0.1161,0.1183,0.1198,0.1229,0.1248,0.1262,0.1258,0.1274,0.1264,0.1252,0.1262,0.1261,0.126,0.126,0.126,0.1264,0.1264,0.1264,0,0.0985,0.1008,0.1033,0.1047,0.1061,0.1087,0.1097,0.1114,0.1146,0.1156,0.1162,0.1204,0.1223,0.1245,0.1244,0.1254,0.1259,0.126,0.1259,0.1258,0.1258,0.1259,0.1259,0.1262,0.1263,0.1263,0.1263,0,0.0985,0.1001,0.1005,0.1036,0.105,0.1062,0.109,0.1102,0.1118,0.1137,0.1157,0.1182,0.1208,0.1214,0.123,0.1239,0.1242,0.1253,0.1264,0.1255,0.1256,0.1256,0.1261,0.1261,0.1261,0.1262,0,0,0.0952,0.0997,0.0999,0.1014,0.1047,0.106,0.1074,0.1099,0.1109,0.1131,0.1145,0.1172,0.1183,0.1199,0.1217,0.1225,0.1223,0.1236,0.1237,0.1234,0.1237,0.1229,0.1228,0.1234,0.1234,0.1234,0.1235,0,0.0944,0.097,0.0994,0.1012,0.1028,0.1054,0.1066,0.1089,0.1108,0.1125,0.1147,0.1166,0.1179,0.1189,0.1198,0.1221,0.1224,0.1222,0.1249,0.1249,0.1242,0.1229,0.122,0.1219,0.1235,0.1236,0.1236,0,0.0938,0.0959,0.0978,0.1012,0.1019,0.103,0.1056,0.1072,0.1099,0.1112,0.1131,0.115,0.1168,0.1178,0.1204,0.1202,0.1215,0.1228,0.1229,0.1233,0.1242,0.1233,0.1219,0.1219,0.1236,0.1236,0.1236,0,0.0914,0.0947,0.0963,0.0975,0.1014,0.1021,0.1038,0.1065,0.1079,0.1102,0.1112,0.1137,0.1151,0.1171,0.1198,0.1201,0.1222,0.1233,0.1235,0.1235,0.1238,0.1238,0.1227,0.1245,0.1245,0.1245,0.1245,0,0.0904,0.0915,0.0953,0.0963,0.0977,0.1005,0.1019,0.1038,0.1062,0.1078,0.1102,0.1116,0.115,0.1169,0.119,0.121,0.1216,0.1229,0.1235,0.1227,0.1226,0.1236,0.1237,0.1245,0.1245,0.1245,0.1245,0,0.0879,0.0905,0.0925,0.096,0.0969,0.0978,0.1009,0.1021,0.1042,0.1061,0.1068,0.1101,0.1125,0.1153,0.1186,0.1201,0.1219,0.1227,0.121,0.1213,0.1214,0.1214,0.121,0.1212,0.1228,0.1228,0.1227,0,0.0871,0.088,0.0916,0.0928,0.0944,0.0963,0.0978,0.1006,0.1021,0.1053,0.1062,0.1087,0.1109,0.1146,0.1175,0.1201,0.121,0.1207,0.1214,0.1207,0.1212,0.1211,0.1213,0.1205,0.1205,0.1204,0.1204,0,0.0854,0.0867,0.0887,0.0912,0.0928,0.0949,0.0972,0.098,0.1014,0.103,0.1054,0.1071,0.1105,0.1131,0.1161,0.118,0.1198,0.1202,0.1204,0.1197,0.1187,0.1194,0.1205,0.1202,0.1202,0.1202,0.1202,0.1202,0.0839,0.0849,0.0877,0.0898,0.0918,0.0939,0.0952,0.0975,0.0995,0.1025,0.1041,0.1065,0.1094,0.1136,0.1155,0.1176,0.1182,0.1185,0.1186,0.1186,0.1184,0.1183,0.1181,0.1181,0.1181,0.1182,0.1182,0,0.0825,0.0844,0.0864,0.0894,0.0912,0.0927,0.0953,0.0967,0.0988,0.1013,0.1034,0.1063,0.1089,0.1119,0.1148,0.1158,0.1168,0.1165,0.1165,0.1169,0.1176,0.1172,0.1157,0.1157,0.1157,0.1157,0.1157,0.1157,0.082,0.0838,0.0855,0.0884,0.0903,0.0927,0.0941,0.096,0.0981,0.1012,0.1033,0.1052,0.108,0.1111,0.1136,0.1145,0.1154,0.1149,0.116,0.1166,0.1169,0.1171,0.1167,0.1151,0.1151,0.1152,0.1152,0.1152]},{"header":{"parameterUnit":"m.s-1","parameterCategory":1,"la1":30.2991,"la2":30.254,"lo1":-89.0895,"lo2":-89.0444,"dy":0.0017,"dx":0.0017,"nx":28,"ny":28,"refTime":"2026-02-04T03:00:00:Z","depth":0,"parameterNumber":3,"parameterNumberName":"V-component_of_WINDS"},"data":[0,0,0,0,0,0,0,0,0,0,0,0,0,0,0,0,0,0,0,0,0,0,0,0,0,0,0,0,0,0,0,0,0,0,0,0,0,0,0,0,0,0,0,0,0,0,0,0,0,0,0,0,0,0,0,0,0,0,4.4634,4.4635,0,4.4697,4.4698,4.4699,4.4752,4.4753,4.4753,4.4754,4.4819,4.482,4.4821,0,0,0,0,0,0,0,0,0,0,0,0,0,4.4563,4.4564,4.4634,4.4635,4.4636,4.4697,4.4698,4.4699,4.4752,4.4753,4.4754,4.4754,4.4819,4.482,4.4821,0,0,0,0,0,0,0,0,0,0,0,0,0,4.4607,4.4565,4.4634,4.467,4.4674,4.4697,4.4698,4.4699,4.4752,4.4753,4.4754,4.4755,4.4818,4.482,4.4822,4.4815,0,0,4.4827,4.4828,0,0,0,0,0,0,0,0,4.4604,4.4609,4.4664,4.4667,4.4672,4.4718,4.4697,4.4738,4.4752,4.4722,4.4754,4.4755,4.4785,4.4789,4.4799,4.4818,4.4821,4.4827,4.4828,4.4829,4.483,0,0,0,0,0,0,0,4.4601,4.4607,4.4659,4.4664,4.4669,4.4684,4.4691,4.4705,4.4748,4.4725,4.4729,4.4736,4.4787,4.4797,4.4801,4.4822,4.4827,4.4829,4.483,4.4831,4.4843,4.4843,0,0,0,0,0,0,4.4592,4.4604,4.4657,4.4661,4.4639,4.4684,4.4692,4.4702,4.4748,4.4756,4.4735,4.4738,4.4794,4.4799,4.4804,4.4802,4.4829,4.4831,4.4832,4.4844,4.4843,4.4842,0,0,0,0,0,0,4.4591,4.4597,4.4655,4.4634,4.4642,4.4685,4.4695,4.4703,4.4713,4.4755,4.4763,4.4737,4.4795,4.4801,4.4813,4.4805,4.4832,4.4833,4.4845,4.4844,4.4843,4.4796,0,0,0,0,0,0,4.4588,4.4596,4.4592,4.4633,4.4643,4.4661,4.4695,4.4703,4.4716,4.4721,4.476,4.4767,4.4796,4.481,4.4815,4.4807,4.4834,4.4846,4.4844,4.4843,4.4798,4.4793,4.4789,0,0,0,0,0,4.4586,4.4576,4.4592,4.4598,4.464,4.4661,4.4666,4.47,4.4715,4.4713,4.4741,4.4766,4.4805,4.4811,4.4816,4.481,4.4846,4.4845,4.4843,4.48,4.4794,4.4789,0,0,0,0,0,0,4.4532,4.4582,4.46,4.4603,4.4627,4.467,4.4668,4.4692,4.4712,4.4716,4.4757,4.4765,4.4773,4.4793,4.4798,4.4808,4.4829,4.4829,4.4795,4.4789,4.4785,4.478,4.4836,0,0,0,0,0,4.452,4.4532,4.4576,4.4574,4.4585,4.4625,4.4635,4.4659,4.4686,4.4696,4.4725,4.475,4.4769,4.478,4.4799,4.4802,4.4813,4.48,4.4796,4.4792,4.4791,4.4797,4.4793,4.4837,4.4837,4.4837,0,0,4.4496,4.4525,4.453,4.4564,4.4586,4.4599,4.4633,4.4644,4.4655,4.4698,4.4712,4.4734,4.4766,4.4773,4.4778,4.479,4.4782,4.479,4.4786,4.4787,4.4795,4.4791,4.4787,4.4836,4.4836,4.4836,0,0,4.446,4.4482,4.4485,4.4507,4.454,4.4567,4.4567,4.4607,4.4624,4.4638,4.4672,4.4686,4.4716,4.4739,4.4754,4.4731,4.4756,4.4736,4.4712,4.4718,4.4714,4.4711,4.4706,4.4703,4.4735,4.4735,4.4735,0,4.4426,4.4446,4.4483,4.4494,4.4509,4.455,4.4555,4.4574,4.4612,4.4622,4.4635,4.4677,4.47,4.4716,4.4711,4.4721,4.4725,4.4731,4.4712,4.4709,4.4707,4.4702,4.47,4.4733,4.4733,4.4733,4.4733,0,4.4405,4.4419,4.4417,4.4454,4.4469,4.4476,4.4516,4.4527,4.4551,4.4577,4.4593,4.4624,4.4652,4.4658,4.468,4.4678,4.4684,4.4704,4.4726,4.47,4.4696,4.4694,4.4729,4.473,4.4731,4.4731,0,0,4.4334,4.4393,4.4392,4.4411,4.4452,4.4464,4.4475,4.4503,4.4513,4.4539,4.4551,4.4577,4.4597,4.4615,4.4641,4.4646,4.4629,4.4665,4.4667,4.4659,4.4632,4.4618,4.4615,4.4646,4.4646,4.4646,4.463,0,4.4305,4.4326,4.4362,4.4372,4.4387,4.4428,4.4438,4.4466,4.4492,4.451,4.4538,4.4558,4.4581,4.4592,4.4599,4.463,4.4625,4.4631,4.4659,4.466,4.4651,4.4613,4.4597,4.458,4.4629,4.4628,4.4628,0,4.4274,4.4299,4.4311,4.4355,4.4362,4.437,4.4401,4.4417,4.4451,4.4469,4.4491,4.452,4.4536,4.4557,4.4581,4.4585,4.4599,4.4617,4.4617,4.4621,4.4642,4.4617,4.4575,4.4573,4.4626,4.4626,4.4626,0,4.4224,4.426,4.4273,4.4287,4.4338,4.4344,4.4365,4.44,4.4416,4.4443,4.4454,4.4483,4.4498,4.4521,4.4558,4.4569,4.458,4.4603,4.4598,4.4597,4.4598,4.4597,4.4559,4.4605,4.4605,4.4605,4.4605,0,4.4189,4.4195,4.4251,4.4259,4.4269,4.431,4.4319,4.4345,4.4376,4.4391,4.4429,4.4442,4.4491,4.4511,4.454,4.4558,4.4564,4.4582,4.4589,4.4579,4.4577,4.4589,4.4591,4.4604,4.4605,4.4605,4.4605,0,4.4133,4.4171,4.4188,4.4236,4.4249,4.4254,4.4296,4.4306,4.4336,4.4355,4.4362,4.4408,4.4434,4.4474,4.4511,4.4532,4.4545,4.4557,4.4534,4.4539,4.4532,4.4533,4.4501,4.45,4.4545,4.4545,4.4544,0,4.4109,4.4115,4.4164,4.4177,4.4198,4.4218,4.4235,4.4278,4.4294,4.4336,4.4342,4.4371,4.4397,4.4437,4.4475,4.4505,4.452,4.4507,4.4524,4.4515,4.4522,4.4521,4.4524,4.4502,4.4501,4.4501,4.45,0,4.4062,4.4081,4.4104,4.4134,4.4154,4.418,4.4208,4.4217,4.4266,4.4283,4.4311,4.4331,4.4371,4.4401,4.4437,4.4462,4.449,4.4495,4.4496,4.4485,4.4472,4.4481,4.4524,4.4495,4.4496,4.4496,4.4496,4.4496,4.4022,4.4031,4.4068,4.4094,4.412,4.4146,4.4159,4.4191,4.4215,4.4251,4.4275,4.4302,4.434,4.4391,4.4415,4.4438,4.445,4.445,4.4451,4.4451,4.4448,4.4468,4.4445,4.4445,4.4445,4.4445,4.4445,0,4.3979,4.4006,4.4029,4.4068,4.4088,4.4114,4.4147,4.4163,4.4187,4.4219,4.4245,4.4278,4.4309,4.435,4.4384,4.4395,4.4409,4.4402,4.4402,4.4408,4.4434,4.4431,4.4391,4.4391,4.4391,4.4391,4.4391,4.4391,4.3959,4.3976,4.4,4.4032,4.4059,4.4086,4.4103,4.4129,4.4156,4.4192,4.4217,4.4244,4.4282,4.4319,4.4349,4.4361,4.4372,4.4362,4.4378,4.4401,4.4406,4.4411,4.4408,4.4363,4.4363,4.435,4.435,4.435]}]]